DLH6LX LGAV-EDDM

Flight info

Callsign DLH6LX
Flight time N/A
Altitude 38000
Route KOR UL613 XANIS DCT DIMIS DCT PETAK DCT GLOMY DCT ELTIB DCT GORPA DCT BERTA DCT RASTA DCT REDBU Q112 NAPSA NAPSA4A
Aircraft A321/M-SDE2E3FGIJ1LORWXYZ/HB1

Departure

Time N/A
Airport Athens Eleftherios Venizelos International Airport (LGAV)

Arrival

Time 2026-05-04 17:45
Airport Munich Airport (EDDM)
Time Latitude Longitude Altitude Speed Heading
2026-05-04 17:01 46.12390 14.97882 38038 ft 423 kts 321°
2026-05-04 17:02 46.21839 14.87685 38066 ft 424 kts 321°
2026-05-04 17:03 46.28919 14.80013 38075 ft 423 kts 320°
2026-05-04 17:03 46.35973 14.72351 38079 ft 422 kts 320°
2026-05-04 17:04 46.44877 14.62631 38054 ft 421 kts 320°
2026-05-04 17:05 46.54083 14.52009 38026 ft 423 kts 319°
2026-05-04 17:06 46.58983 14.46235 38021 ft 424 kts 319°
2026-05-04 17:07 46.65127 14.39047 38025 ft 423 kts 319°
2026-05-04 17:07 46.70467 14.32798 38032 ft 424 kts 319°
2026-05-04 17:08 46.77369 14.24683 37527 ft 425 kts 319°
2026-05-04 17:08 46.79676 14.21971 37253 ft 426 kts 319°
2026-05-04 17:09 46.81986 14.19245 36983 ft 427 kts 319°
2026-05-04 17:09 46.84294 14.16515 36712 ft 428 kts 319°
2026-05-04 17:09 46.86613 14.13765 36453 ft 429 kts 319°
2026-05-04 17:10 46.91271 14.08252 35937 ft 431 kts 319°
2026-05-04 17:10 46.98146 14.00095 34715 ft 421 kts 319°
2026-05-04 17:11 47.00410 13.97399 34254 ft 418 kts 319°
2026-05-04 17:11 47.02660 13.94717 33766 ft 415 kts 319°
2026-05-04 17:11 47.07093 13.89421 32846 ft 406 kts 318°
2026-05-04 17:12 47.09270 13.86819 32391 ft 403 kts 318°
2026-05-04 17:12 47.13579 13.81669 31490 ft 395 kts 318°
2026-05-04 17:13 47.19882 13.74089 30207 ft 385 kts 318°
2026-05-04 17:14 47.26017 13.66700 28918 ft 373 kts 318°
2026-05-04 17:14 47.27990 13.64324 28538 ft 368 kts 318°
2026-05-04 17:14 47.31898 13.59599 27784 ft 359 kts 318°
2026-05-04 17:15 47.33826 13.57262 27408 ft 357 kts 318°
2026-05-04 17:15 47.37639 13.52630 26673 ft 353 kts 318°
2026-05-04 17:16 47.41408 13.48050 25954 ft 349 kts 318°
2026-05-04 17:16 47.46980 13.41271 24816 ft 343 kts 318°
2026-05-04 17:17 47.48812 13.39032 24431 ft 341 kts 318°
2026-05-04 17:17 47.54265 13.32411 23232 ft 335 kts 319°
2026-05-04 17:18 47.56067 13.30236 22827 ft 333 kts 319°
2026-05-04 17:18 47.59440 13.26154 22074 ft 329 kts 319°
2026-05-04 17:19 47.62968 13.21870 21309 ft 326 kts 318°
2026-05-04 17:19 47.65502 13.18787 20680 ft 324 kts 318°
2026-05-04 17:20 47.68965 13.14566 19962 ft 320 kts 318°
2026-05-04 17:20 47.72388 13.10379 19196 ft 317 kts 318°
2026-05-04 17:20 47.74088 13.08297 18813 ft 316 kts 317°
2026-05-04 17:21 47.77465 13.04167 18027 ft 313 kts 317°
2026-05-04 17:21 47.80784 13.00094 17257 ft 309 kts 317°
2026-05-04 17:22 47.82438 12.98059 16880 ft 308 kts 317°
2026-05-04 17:22 47.84107 12.96004 16497 ft 307 kts 317°
2026-05-04 17:23 47.88984 12.90000 15404 ft 303 kts 317°
2026-05-04 17:23 47.90605 12.87999 15034 ft 301 kts 317°
2026-05-04 17:23 47.93814 12.84029 14307 ft 299 kts 317°
2026-05-04 17:24 47.95331 12.81940 13962 ft 295 kts 307°
2026-05-04 17:24 47.98759 12.73816 13918 ft 315 kts 296°
2026-05-04 17:25 47.99883 12.71009 13917 ft 315 kts 296°
2026-05-04 17:25 48.02131 12.65382 13918 ft 315 kts 296°
2026-05-04 17:26 48.04656 12.60013 13910 ft 322 kts 311°
2026-05-04 17:26 48.09454 12.52970 13911 ft 322 kts 311°
2026-05-04 17:27 48.12649 12.48273 13921 ft 322 kts 311°
2026-05-04 17:27 48.15821 12.43605 13914 ft 322 kts 311°
2026-05-04 17:28 48.19014 12.38899 13527 ft 320 kts 310°
2026-05-04 17:29 48.23738 12.31908 12734 ft 316 kts 311°
2026-05-04 17:29 48.27501 12.25377 12066 ft 305 kts 292°
2026-05-04 17:30 48.28469 12.16369 11309 ft 289 kts 260°
2026-05-04 17:31 48.28009 12.10371 10930 ft 288 kts 260°
2026-05-04 17:31 48.27345 12.01339 10944 ft 292 kts 261°
2026-05-04 17:32 48.26897 11.95279 10945 ft 292 kts 261°
2026-05-04 17:33 48.26209 11.86292 10946 ft 287 kts 261°
2026-05-04 17:33 48.25984 11.83323 10936 ft 287 kts 261°
2026-05-04 17:34 48.25399 11.75615 9812 ft 269 kts 260°
2026-05-04 17:35 48.24855 11.68581 8574 ft 271 kts 261°
2026-05-04 17:35 48.24406 11.62921 7624 ft 275 kts 261°
2026-05-04 17:35 48.24181 11.60064 7163 ft 277 kts 261°
2026-05-04 17:36 48.23952 11.57184 6698 ft 278 kts 262°
2026-05-04 17:36 48.23722 11.54293 6242 ft 280 kts 262°
2026-05-04 17:36 48.23488 11.51385 5762 ft 282 kts 262°
2026-05-04 17:36 48.23255 11.48489 5292 ft 283 kts 262°
2026-05-04 17:37 48.23026 11.45604 5122 ft 273 kts 263°
2026-05-04 17:37 48.22803 11.42780 4923 ft 266 kts 263°
2026-05-04 17:37 48.22601 11.40069 4730 ft 264 kts 267°
2026-05-04 17:37 48.22915 11.37392 4526 ft 262 kts 295°
2026-05-04 17:38 48.23914 11.35129 4454 ft 259 kts 318°
2026-05-04 17:38 48.25418 11.33818 4116 ft 243 kts 345°
2026-05-04 17:38 48.27060 11.33507 3925 ft 236 kts
2026-05-04 17:38 48.28629 11.34090 3790 ft 233 kts 26°
2026-05-04 17:39 48.30863 11.37428 3738 ft 231 kts 67°
2026-05-04 17:39 48.31265 11.39749 3739 ft 231 kts 84°
2026-05-04 17:39 48.31452 11.42116 3748 ft 221 kts 83°
2026-05-04 17:40 48.31630 11.44328 3735 ft 207 kts 83°
2026-05-04 17:40 48.31801 11.46446 3735 ft 201 kts 83°
2026-05-04 17:40 48.31963 11.48466 3735 ft 192 kts 83°
2026-05-04 17:40 48.32122 11.50445 3737 ft 190 kts 83°
2026-05-04 17:41 48.32279 11.52411 3752 ft 189 kts 83°
2026-05-04 17:41 48.32435 11.54369 3760 ft 186 kts 83°
2026-05-04 17:41 48.32577 11.56154 3737 ft 158 kts 83°
2026-05-04 17:41 48.32702 11.57734 3682 ft 147 kts 83°
2026-05-04 17:42 48.32820 11.59215 3546 ft 141 kts 83°
2026-05-04 17:42 48.32931 11.60628 3363 ft 137 kts 84°
2026-05-04 17:42 48.33043 11.62121 3250 ft 146 kts 83°
2026-05-04 17:42 48.33159 11.63657 3096 ft 151 kts 83°
2026-05-04 17:43 48.33275 11.65196 2893 ft 143 kts 83°
2026-05-04 17:43 48.33392 11.66655 2661 ft 145 kts 83°
2026-05-04 17:43 48.33518 11.68146 2469 ft 140 kts 82°
2026-05-04 17:43 48.33634 11.69639 2246 ft 145 kts 83°
2026-05-04 17:44 48.33745 11.71133 2056 ft 143 kts 82°
2026-05-04 17:44 48.33867 11.72617 1861 ft 144 kts 80°
2026-05-04 17:44 48.33990 11.74128 1687 ft 147 kts 82°
2026-05-04 17:44 48.34108 11.75653 1479 ft 142 kts 83°
2026-05-04 17:45 48.34200 11.76819 1479 ft 71 kts 83°
2026-05-04 17:45 48.34250 11.77336 1474 ft 43 kts 72°
2026-05-04 17:45 48.34387 11.77679 1482 ft 28 kts 53°
2026-05-04 17:45 48.34489 11.77887 1481 ft 24 kts 53°
2026-05-04 17:46 48.34569 11.78106 1476 ft 24 kts 80°
2026-05-04 17:46 48.34590 11.78364 1484 ft 25 kts 84°
2026-05-04 17:46 48.34612 11.78634 1486 ft 26 kts 84°
2026-05-04 17:46 48.34632 11.78910 1486 ft 27 kts 83°
2026-05-04 17:47 48.34654 11.79196 1481 ft 27 kts 83°
2026-05-04 17:47 48.34669 11.79392 1481 ft 15 kts 83°
2026-05-04 17:47 48.34689 11.79529 1480 ft 12 kts 56°
2026-05-04 17:47 48.34770 11.79554 1476 ft 13 kts
2026-05-04 17:48 48.34869 11.79556 1478 ft 15 kts 354°
2026-05-04 17:48 48.34978 11.79537 1473 ft 16 kts 353°